Погода в Иерусалимском

Россия / Самарская область     52°47′38″N   49°19′18″E
темп.,
°C
ветер,
м/с
пор.,
м/с
влажн.,
%
обл.,
%
осадки,
мм/ч
давл.,
гПа
погр.,
м
26 февраля, пт
пт2601:00−12ю61193100 0.4 1018470
04:00−12ю5995100 0.9 1016312
07:00−13ююв369694 0.3 1015122
10:00−12ююв359592 0.4 1015204
13:00−10ююв469386 0.0 1016342
16:00−9ююв589392 0.1 1015389
19:00−10ююв71394100 0.5 1012396
22:00−8ююв91594100 2.2 1007427
27 февраля, сб
сб2701:00−4ю81395100 2.0 1001314
04:00+2з61399100 2.4 1000449
07:00+1з6129186 0.1 999431
10:000зюз7139185 0.1 1000419
13:00+1зюз61110074 0.0 999520
16:00+1зюз6109987 0.1 998523
19:000зюз5998100 0.3 998442
22:00−1з5897100 1.3 999385
28 февраля, вс
вс2801:00−5сз5896100 1.0 999378
04:00−10ссз71394100 1.6 1002477
07:00−12ссз71392100 0.3 1004479
10:00−13ссз71192100 0.3 1006486
13:00−12ссз6892100 0.1 1008513
16:00−11ссз5892100 0.2 1010565
19:00−14ссз4995100 0.1 1013372
22:00−18ссз489579 0.1 1015163
1 марта, пн
пн101:00−19ссз369823 0.0 1017100
04:00−20ссз469942 0.0 101898
07:00−22ссз469851 0.0 1020107
10:00−20ссз479536 0.0 1022239
13:00−17ссз469361 0.0 1023307
16:00−15сз359266 0.0 1023308
19:00−18зсз229615 0.0 102320
22:00−19юз23967 0.0 102420
2 марта, вт
вт201:00−19юз34970 0.0 102252
04:00−19ююз47983 0.0 1020102
07:00−17ююз599570 0.0 1018181
10:00−13ююз7129585 0.1 1014297
13:00−8ююз81394100 0.6 1011527
16:00−4ююз81395100 1.7 1008634
19:00−2юз61295100 0.7 1005467
22:00−2ююз4997100 1.4 1004288